Location: Eferding
(48.3167°N, 14.0167°E)
Time: 20:33:15
(UTC+00:00)

Gblst 52 Del rocket - Pass Details

Date: 12 November 2019
Orbit: 806 x 1365 km, 51.5° (Epoch: 10 December)

Event Time Altitude Azimuth Distance (km) Brightness Sun altitude
Rises 18:07:35 0° 266° (W) 3,910 9.0 -26.3°
Reaches altitude 10° 18:10:28 10° 269° (W) 2,865 7.9 -26.8°
Maximum altitude 18:17:12 68° 352° (N) 1,018 4.5 -27.9°
Enters shadow 18:17:47 64° 25° (NNE) 1,035 4.4 -28.0°
